S-NET C

Last updated on Wed Aug 19 2026 00:03:17 GMT+0000 (Coordinated Universal Time)

1 43189U 18014K 26230.22129669 .00004132 00000+0 21153-3 0 9993 2 43189 97.5317 134.9171 0010916 143.3365 216.8617 15.17122726466716
UTC large
Height (km)
Speed (km/s)
/
Latitude / Longitude
Inclination (degrees)
Orbital Period (minutes)
Azimuth
Elevation
Range (km)
Doppler Factor

Next 0 passes for location: London (51.5072 / 0.1276)

No passes found over London.
S-NET C